TIROS 8 DEB, 19396

Orbit data source: Space-Track

TIROS 8 DEB, 19396 is space debris in LEO originally from a launch on Sat, 21 Dec 1963 UTC launched from the Air Force Western Test Range (AFWTR). Debris objects in space refer to the collection of defunct objects orbiting the Earth. Examples of debris include non-operational satellites, rocket bodies, and fragments generated from explosions, collisions, or faulty payload assembly.

Loading next visibility...
Identifier
19396, 1963-054E
Orbit
LEO
Country
Flag of USUS
Related business
Manufacturer
Unknown
Mission
Spacecraft
Bus & Motor
Unknown
Mass
Unknown
Launch date (UTC)
1963-12-21 (62 years ago)
Launch vehicle
Unknown
Launch site
Air Force Western Test Range (AFWTR)
Object type
Payload
Rocket body
Debris
Shape & HBR
Unknown shape, 0.1 m
Radar Cross Section
Small (<0.1 m²)

Expand to show TLE details & history
Last TLE update: 7 hours ago

TLE from 7 hours ago
0 TIROS 8 DEB
1 19396U 63054E   26119.26124915  .00006106  00000-0  34247-3 0  9991
2 19396  58.4644 105.8301 0015296  15.6799 344.4730 15.14512594 27044
Epoch: 2026-04-29T06:16Z
TLE epoch observation values (Epoch: 2026-04-29T06:16:11.926Z)
Latitude
-0.00004°
Longitude
154.55563°
Altitude
513.731 km
Speed
7.613 km/s
True Right ascension
07h 03m 19s
True Declination
0° 00' 00"
Sunlit
Object was in daylight at epoch
Visualization orbit readout
Latitude
Unknown
Longitude
Unknown
Altitude
Unknown
Speed
Unknown
Apparent Right ascension
Unknown
Apparent Declination
Unknown
Sunlit
N/A
Visualization observer readout
Local Sidereal Time
20:29:41
Azimuth
Unknown
Elevation
Unknown
Doppler factor
Unknown
Orbital elements
Apogee altitude
532.445 km
Perigee altitude
511.336 km
Semi-major axis
6,900.028 km
Eccentricity
0.00153
Inclination
58.4644°
RAAN
105.8301°
Arg. of periapsis
15.6799°
True anomaly
344.42599°
Mean anomaly
344.473°
Eccentric anomaly
344.4495°
Mean motion
3.78675 °/min
Orbital period
95.07 mins
BSTAR
0.00034247
Loading maneuver chart data...
Computing Atmospheric mass density...
Loading historical data...
Loading historical data...
Loading historical data...
Loading historical data...
Loading historical data...
Loading historical data...
Loading historical data...
Other satellites on launch #54 in the year 1963 (1963-12-21 UTC)

Documentation

Showing up to 5 results
|